Regional Weather Roundup
Issued by NWS

Home | Current Version | Previous Version | Graphics & Text | Print | Product List | Glossary On
Versions: 1 2 3 4 5 6 7 8 9 10 11 12 13 14 15 16 17 18 19 20 21 22 23 24 25 26 27 28 29 30 31 32 33 34 35 36 37 38 39 40 41 42 43 44 45 46 47 48 49 50
000
ASUS45 KBOU 270607
RWRCO

WEATHER ROUNDUP FOR COLORADO
NATIONAL WEATHER SERVICE DENVER/BOULDER CO
1200 AM MDT MON APR 27 2015

NOTE: "FAIR" INDICATES FEW OR NO CLOUDS BELOW 12000 FEET WITH NO
SIGNIFICANT WEATHER AND/OR OBSTRUCTIONS TO VISIBILITY.

COZ001>005-013-030-031-270700-
...NORTHWEST COLORADO...

CITY           SKY/WX    TMP DP  RH WIND       PRES   REMARKS
CRAIG          CLOUDY    41  38  89 CALM      30.04R
HAYDEN         CLOUDY    39  36  87 W7        30.03R
MEEKER         CLOUDY    42  37  82 E5        30.03R
MOUNT WERNER   NOT AVBL
STEAMBOAT SPGS MOCLDY    38  37  95 CALM      30.02R
WALDEN         PTCLDY    32  28  86 N3        30.06R
$$

COZ006>008-011-270700-
...WEST CENTRAL VALLEYS...

CITY           SKY/WX    TMP DP  RH WIND       PRES   REMARKS
GRAND JUNCTION CLOUDY    47  42  83 VRB3      29.96R
MONTROSE       CLOUDY    44  42  93 CALM      29.99R
EAGLE          MOCLDY    39  39 100 E5        30.01R
RIFLE          CLOUDY    43  40  89 NE3       29.99R
DELTA          CLOUDY    47  43  87 MISG      29.97R
NUCLA          CLOUDY    46  39  76 CALM      29.98S
$$

COZ017>023-064>068-270700-
...SOUTHWEST COLORADO...

CITY           SKY/WX    TMP DP  RH WIND       PRES   REMARKS
DURANGO        LGT RAIN  39  37  92 NW5       29.92R
CORTEZ         PTCLDY    45  38  76 NW5       29.91R
PAGOSA SPRINGS CLOUDY    40  38  94 CALM      29.94R
TELLURIDE      CLOUDY    34  34 100 CALM      30.01R
WOLF CREEK PAS NOT AVBL
$$

COZ009-010-012-014-032>034-037-058>063-270700-
...CENTRAL COLORADO...

CITY           SKY/WX    TMP DP  RH WIND       PRES   REMARKS
ASPEN          CLOUDY    38  36  92 CALM      30.00R
BUENA VISTA    LGT RAIN  35  34  95 S3        30.06R
COPPER MTN     CLOUDY    28  23  80 E6        30.12R WCI  22
BERTHOUD PASS  HAZE      19  12  73 E31G37    30.14S VSB<1/4 WCI   0
COTTONWOOD PAS SNOW      34  32  93 SE7       30.09R VSB 1/4 WCI  28
GUNNISON       PTCLDY    39  34  81 N6        30.02R
KREMMLING      CLEAR     34  28  80 CALM      30.04R
LEADVILLE      CLOUDY    29  28  96 CALM      30.07R
MONARCH PASS   CLOUDY    25  23  93 MISG      30.18R
SALIDA         CLOUDY    36  34  94 SE3       30.14R
SUNLIGHT       FOG       32  32 100 CALM      30.11S VSB 3/4
WILKERSON PASS CLOUDY   N/A N/A N/A E12G20    30.14R FOG
$$

COZ069>075-270700-
...SAN LUIS VALLEY/SANGRE DE CRISTO MOUNTAINS...

CITY           SKY/WX    TMP DP  RH WIND       PRES   REMARKS
ALAMOSA        CLOUDY    35  33  92 NW12      29.98R WCI  27
LA VETA PASS   SNOW      27  25  93 MISG      30.01R VSB 1/2
SAGUACHE       MOCLDY    36  32  87 NW9       30.00R
$$

COZ035-036-038>040-270700-
...NORTHERN COLORADO FRONT RANGE...

CITY           SKY/WX    TMP DP  RH WIND       PRES   REMARKS
DENVER INTL AP LGT RAIN  40  40 100 NE8       30.10S FOG
DMNS CITY PARK   N/A     40  39  96 NE7       30.11R
AURORA         LGT RAIN  38  38 100 NE10      30.11R
FRONT RANGE AP CLOUDY    41  39  93 E10       30.12R FOG
ERIE MUNI ARPT DRIZZLE   40  39  97 E5        30.12R
BOULDER MUN AP LGT RAIN  41  41 100 E6        30.11R
CENTENNIAL     LGT RAIN  39  39 100 NE6       30.09R FOG
BROOMFIELD     LGT RAIN  37  37 100 E8        30.12R
FORT COLLINS   CLOUDY    39  37  93 E9        30.14R
LONGMONT       RAIN      43  42  94 E12       30.14R
$$

COZ041-046-047-076>085-087-088-270700-
...PIKES PEAK/PALMER DIVIDE AND SOUTHERN FOOTHILLS...

CITY           SKY/WX    TMP DP  RH WIND       PRES   REMARKS
COLO. SPRINGS  DRIZZLE   40  38  93 E9        30.08R
A. F. ACADEMY  LGT RAIN  38  38  99 NW3       30.07S FOG
ELLICOTT       CLOUDY   N/A N/A N/A E14       30.06R HAZE
FALCON         LGT RAIN  37  36  99 NE9       30.09R
FORT CARSON    DRIZZLE   40  40  99 NE8       30.06R
LIMON          CLOUDY    39  39 100 NE6       30.08S FOG
MONUMENT HILL  FOG       34  34 100 E9        30.08R VSB 1   WCI  26
TRINIDAD       CLOUDY    41  40  96 NE10      30.00R FOG
$$

COZ042>045-048>051-090-091-270700-
...NORTHEAST COLORADO...

CITY           SKY/WX    TMP DP  RH WIND       PRES   REMARKS
GREELEY ARPT   CLOUDY    39  36  87 E8        30.14R
AKRON          CLOUDY    41  41 100 E10       30.10S FOG
BURLINGTON     LGT RAIN  43  41  93 NE15      30.06R
WRAY           CLOUDY   N/A N/A N/A NE7       30.10S
STERLING       LGT RAIN  43  43 100 E5        30.12R
HOLYOKE        MOCLDY    46  43  87 NE6       30.12R
FORT MORGAN    RAIN      40  38  94 NE3       30.13R
$$

COZ086-089-092>099-270700-
...SOUTHEAST COLORADO...

CITY           SKY/WX    TMP DP  RH WIND       PRES   REMARKS
PUEBLO         CLOUDY    43  42  97 E9        30.05R
LA JUNTA       CLOUDY    45  42  89 E16       30.02S
LAMAR          CLOUDY    45  43  93 E15       30.01R FOG
SPRINGFIELD      N/A     42  42 100 NE20      29.97R
$$


USA.gov is the U.S. government's official web portal to all federal, state and local government web resources and services.